Starlink 33804

operational
NORAD ID: 63511 Int'l Des: 2025-071 Owner: SPXS Country: US Constellation: starlink
LEOCIRCULAR

Über Starlink 33804

Beschreibung wird geladen...

Live-Position

3D-Globus wird geladen...

Nächste Überflüge

Höhenverlauf

Altitude vs Time

uPlot chart will show altitude changes over time

Zweizeiliger Elementsatz

1 63511U 25071U 26034.11887659 .00025290 00000-0 86299-3 0 9996
2 63511 53.1587 300.7013 0000828 107.0831 253.0261 15.30203440 47102
Epoch: 3. Feb. 2026 • Age: 11 hours

Aktueller Status

Höhe 481.2 km
Geschwindigkeit 7.63 km/s
Subsatellitenpunkt 53.31°N, 40.96°E
Startdatum 7. Apr. 2025
Alter 0.8 years
Typ internet

Technische Details

Klassifizierung Payload
Masse 575.00 kg
Trockenmasse 530.00 kg
Gesamtmasse 575.00 kg
Länge 0.30 m
Durchmesser 4.10 m
Spannweite 29.00 m
Form Box + pan
Hersteller SPXS
Bus-Typ Starlink V2MO
Phasenstatus In Orbit
Besitzer/Staat SPXS/US

Große Konstellationen

Loading constellations...